Home > Weather > Tromsø > Past weeks

Flag for Norway Past Weather in Tromsø, Norway — Yesterday and Last 2 Weeks

Now
44 °F

Overcast.


Feels Like: 40 °F
Forecast: 43 / 46 °F
Wind: 7 mph from Northeast

Location: Tromso / Langnes

Current Time: Aug 27, 2016 at 1:22:13 AM

Latest Report: Aug 27, 2016 at 12:00 AM


Visibility: 25 mi

Pressure: 29.81 "Hg

Humidity: 85%

Dew Point: 40 °F

Location of TromsøLocation

Past Weather in Tromsø — Graph

°F

Tromsø Temperature Yesterday

Maximum temperature yesterday: 50 °F (at 1:00 PM)
Minimum temperature yesterday: 44 °F (at 10:00 PM)
Average temperature yesterday: 47 °F

High & Low Weather Summary for the Past Weeks

 TemperatureHumidityPressure
High70 °F (Aug 20, 1:00 PM)96% (Aug 26, 6:00 AM)30.29 "Hg (Aug 26, 6:00 AM)
Low40 °F (Aug 15, 4:00 AM)44% (Aug 18, 5:00 PM)29.69 "Hg (Aug 12, 9:00 PM)
Average51 °F77%30.04 "Hg
* Reported Aug 12 12:00 AM — Aug 27 12:00 AM, Tromsø, Weather by CustomWeather, © 2016

Note: Actual official high and low records may vary slightly from our data, if they occured in-between our weather recording intervals... More about our weather records

Advertising

Tromsø Weather History for the Previous 24 Hours

Scroll right to see more
 ConditionsComfort  
Time TempWeatherWind HumidityBarometerVisibility
12:00 AM
Sat, Aug 27
44 °FOvercast.7 mph85%29.81 "Hg25 mi
11:00 PM
Fri, Aug 26
44 °FOvercast.6 mph87%29.83 "Hg19 mi
10:00 PM44 °FOvercast.7 mph87%29.85 "Hg14 mi
9:00 PM44 °FOvercast.6 mph90%29.87 "Hg19 mi
8:00 PM45 °FOvercast.5 mph94%29.89 "Hg31 mi
7:00 PM46 °FOvercast.5 mph91%29.91 "Hg31 mi
6:00 PM46 °FRain showers. Overcast.3 mph91%29.93 "Hg6 mi
5:00 PM47 °FOvercast.5 mph92%29.94 "Hg19 mi
4:00 PM47 °FLow clouds.3 mph89%29.95 "Hg31 mi
3:00 PM49 °FLight rain. Overcast.5 mph92%29.95 "Hg3 mi
2:00 PM49 °FLow clouds.3 mph93%29.96 "Hg10 mi
1:00 PM50 °FRain. Overcast.6 mph91%29.96 "Hg6 mi
12:00 PM49 °FRain. Overcast.1 mph95%29.97 "Hg2 mi
11:00 AM49 °FLight rain. Low clouds.2 mph95%29.97 "Hg3 mi
10:00 AM49 °FRain showers. Overcast.2 mph94%29.98 "Hg3 mi
9:00 AM48 °FLots of rain. Overcast.1 mph96%29.98 "Hg6 mi
8:00 AM48 °FRain showers. Overcast.1 mph95%29.98 "Hg2 mi
7:00 AM48 °FLow clouds.1 mph94%29.98 "Hg12 mi
6:00 AM47 °FDrizzle. Low clouds.2 mph96%30.00 "Hg3 mi
5:00 AM47 °FRain. Low clouds.3 mph95%30.00 "Hg3 mi
4:00 AM47 °FOvercast.2 mph91%30.00 "Hg31 mi
3:00 AM47 °FDrizzle. Overcast.5 mph91%30.01 "Hg6 mi
2:00 AM47 °FOvercast.6 mph93%30.01 "Hg31 mi
1:00 AM47 °FDrizzle. Overcast.3 mph94%30.00 "Hg3 mi
Weather by CustomWeather, © 2016

See weather overviewHow to use our weather pages